TimeAKST,TemperatureF,Dew PointF,Humidity,Sea Level PressureIn,VisibilityMPH,Wind Direction,Wind SpeedMPH,Gust SpeedMPH,PrecipitationIn,Events,Conditions,WindDirDegrees,DateUTC
12:53 AM,43.0,41.0,93,29.54,6.0,SE,19.6,38.0,0.03,Rain,Light Rain,140,2013-12-12 09:53:00
1:00 AM,43.0,41.0,93,29.52,9.0,SE,20.7,38.0,0.01,Rain,Light Rain,140,2013-12-12 10:00:00
1:53 AM,43.0,41.0,93,29.54,9.0,SE,20.7,33.4,0.02,Rain,Light Rain,140,2013-12-12 10:53:00
3:35 AM,43.0,41.0,93,29.51,10.0,SE,19.6,29.9,0.01,Rain,Light Rain,140,2013-12-12 12:35:00
3:53 AM,43.0,41.0,93,29.51,10.0,SE,15.0,27.6,0.02,Rain,Light Rain,140,2013-12-12 12:53:00
4:15 AM,43.0,41.0,93,29.50,9.0,SE,18.4,27.6,0.01,Rain,Light Rain,140,2013-12-12 13:15:00
4:53 AM,43.0,41.0,93,29.51,10.0,SE,18.4,27.6,0.03,Rain,Light Rain,140,2013-12-12 13:53:00
5:53 AM,43.0,41.0,93,29.51,6.0,SE,17.3,27.6,0.02,Rain,Light Rain,140,2013-12-12 14:53:00
6:53 AM,43.0,42.1,97,29.51,10.0,SE,19.6,32.2,0.09,Rain,Light Rain,140,2013-12-12 15:53:00
7:53 AM,43.0,42.1,97,29.53,8.0,SE,18.4,28.8,0.06,Rain,Rain,140,2013-12-12 16:53:00
8:53 AM,43.0,42.1,97,29.54,8.0,SE,11.5,24.2,0.06,Rain,Light Rain,130,2013-12-12 17:53:00
9:53 AM,43.0,42.1,97,29.56,6.0,SE,16.1,24.2,0.06,Rain,Light Rain,130,2013-12-12 18:53:00
10:53 AM,43.0,42.1,97,29.57,7.0,SE,18.4,26.5,0.10,Rain,Light Rain,140,2013-12-12 19:53:00
11:48 AM,42.8,42.8,100,29.57,5.0,SSE,15.0,26.5,0.07,Rain,Light Rain,150,2013-12-12 20:48:00
11:53 AM,43.0,43.0,100,29.58,4.0,SE,16.1,27.6,0.07,Rain,Light Rain,140,2013-12-12 20:53:00
12:04 PM,43.0,43.0,100,29.58,2.0,SE,12.7,21.9,0.04,Rain,Rain,140,2013-12-12 21:04:00
12:23 PM,44.1,44.1,100,29.58,3.0,SSE,13.8,-,0.08,Rain,Light Rain,150,2013-12-12 21:23:00
12:28 PM,44.1,44.1,100,29.58,2.5,SSE,13.8,20.7,0.09,Rain,Light Rain,150,2013-12-12 21:28:00
12:53 PM,45.0,45.0,100,29.59,2.0,SSE,12.7,21.9,0.12,Rain,Light Rain,160,2013-12-12 21:53:00
1:24 PM,45.0,45.0,100,29.60,6.0,South,6.9,18.4,0.04,,Overcast,180,2013-12-12 22:24:00
1:53 PM,45.0,45.0,100,29.61,5.0,South,8.1,-,0.04,Rain,Light Rain,190,2013-12-12 22:53:00
2:53 PM,45.0,45.0,100,29.63,10.0,Variable,3.5,-,0.01,,Mostly Cloudy,0,2013-12-12 23:53:00
3:00 PM,45.0,45.0,100,29.63,10.0,South,4.6,-,N/A,,Mostly Cloudy,170,2013-12-13 00:00:00
3:53 PM,44.1,44.1,100,29.66,10.0,Variable,4.6,-,N/A,,Mostly Cloudy,0,2013-12-13 00:53:00
4:02 PM,44.1,44.1,100,29.66,10.0,SSE,3.5,-,N/A,,Overcast,160,2013-12-13 01:02:00
4:41 PM,43.0,43.0,100,29.68,10.0,Variable,3.5,-,N/A,,Overcast,0,2013-12-13 01:41:00
4:53 PM,43.0,43.0,100,29.69,10.0,Variable,4.6,-,N/A,,Overcast,0,2013-12-13 01:53:00
5:53 PM,42.1,41.0,96,29.72,10.0,West,4.6,-,N/A,,Overcast,260,2013-12-13 02:53:00
6:53 PM,41.0,39.0,93,29.76,10.0,Variable,5.8,-,N/A,,Overcast,0,2013-12-13 03:53:00
7:16 PM,41.0,37.9,89,29.77,10.0,West,8.1,-,N/A,,Overcast,260,2013-12-13 04:16:00
7:40 PM,41.0,37.9,89,29.79,10.0,West,8.1,-,N/A,,Overcast,260,2013-12-13 04:40:00
7:53 PM,41.0,39.0,93,29.81,10.0,West,6.9,-,N/A,,Overcast,260,2013-12-13 04:53:00
8:53 PM,39.9,37.0,89,29.84,10.0,West,5.8,-,N/A,,Mostly Cloudy,270,2013-12-13 05:53:00
9:53 PM,39.0,37.0,93,29.87,10.0,West,6.9,-,N/A,,Clear,270,2013-12-13 06:53:00
10:53 PM,39.0,36.0,89,29.90,10.0,West,3.5,-,N/A,,Clear,270,2013-12-13 07:53:00
11:53 PM,37.9,36.0,93,29.94,10.0,Calm,Calm,-,N/A,,Scattered Clouds,0,2013-12-13 08:53:00